User: anonymous   Login
Location: Fort Frances
(48.6170°N, 93.4170°W)
Time: 08:51:57
(UTC-06:00)
Language:

CZ-2C R/B - Orbit

View from above orbital plane
View from above orbital plane
View from above satellite
View from above satellite

Ground track
Ground track

The orbit data is extracted from the following two-line orbital elements,

1 36089U 09061B   18016.92272171 +.00000027 +00000-0 +17671-4 0  9994
2 36089 098.0622 014.3384 0083233 107.1983 308.4835 14.49705886432581
Epoch (UTC): 16 January 2018 22:08:43
Eccentricity: 0.0083233
inclination: 98.0622°
perigee height: 667 km
apogee height: 786 km
right ascension of ascending node: 14.3384°
argument of perigee: 107.1983°
revolutions per day: 14.49705886
mean anomaly at epoch: 308.4835°
orbit number at epoch: 43258

The dashed part of the orbit path shows where the satellite is in the earth's shadow,  

DLR